Terug naar catalogus

STARLINK-5284

ActiefCommunicatieVLEO
NORAD 55297·PAYLOAD·🇺🇸 United States

Gelanceerd Jan 19, 2023 vanaf Vandenberg Space Force Base

Loading…

Volgende Passages (komende 24 uur)

TLE

VersSource: CelesTrak SupGP

Epoch: Sep 15, 2026, 02:31 UTC

1 55297C 23010AE  26258.10534722 -.00030644  00000+0 -25674-2 0  2583
2 55297  70.0000 266.8028 0003532 266.6687  85.7010 14.98355055    10

Volg STARLINK-5284 in realtime met AllMySat

Download on the App Store